[[{"header":{"parameterUnit":"m.s-1","parameterCategory":1,"la1":30.2991,"la2":30.254,"lo1":-89.0895,"lo2":-89.0444,"dy":0.0017,"dx":0.0017,"nx":28,"ny":28,"refTime":"2024-02-23T03:00:00:Z","depth":0,"parameterNumber":2,"parameterNumberName":"U-component_of_WINDS"},"data":[0,0,0,0,0,0,0,0,0,0,0,0,0,0,0,0,0,0,0,0,0,0,0,0,0,0,0,0,0,0,0,0,0,0,0,0,0,0,0,0,0,0,0,0,0,0,0,0,0,0,0,0,0,0,0,0,0,0,4.3262,4.3263,0,4.332,4.332,4.3321,4.3292,4.3291,4.3289,4.3288,4.3347,4.335,4.3353,0,0,0,0,0,0,0,0,0,0,0,0,0,4.3132,4.3135,4.3262,4.3263,4.3264,4.3319,4.332,4.3321,4.3293,4.3291,4.3289,4.3287,4.3346,4.3349,4.3353,0,0,0,0,0,0,0,0,0,0,0,0,0,4.3189,4.3136,4.3262,4.3256,4.3256,4.3319,4.332,4.3321,4.3293,4.3291,4.3289,4.3287,4.3345,4.3349,4.3353,4.3425,0,0,4.3367,4.3369,0,0,0,0,0,0,0,0,4.3186,4.3194,4.3257,4.3257,4.3257,4.3297,4.3296,4.3356,4.3294,4.3279,4.3288,4.3285,4.3332,4.3337,4.3353,4.3428,4.3431,4.3367,4.337,4.3372,4.3373,0,0,0,0,0,0,0,4.3182,4.3191,4.3285,4.3258,4.3258,4.3252,4.3258,4.3307,4.3317,4.328,4.3278,4.3286,4.3332,4.3349,4.3354,4.3431,4.3367,4.3371,4.3374,4.3376,4.3574,4.3577,0,0,0,0,0,0,4.3178,4.3188,4.3283,4.3287,4.3215,4.3256,4.3263,4.3286,4.3317,4.3319,4.3287,4.3284,4.3342,4.3349,4.3356,4.3446,4.3372,4.3376,4.3379,4.3572,4.3575,4.3578,0,0,0,0,0,0,4.3175,4.3187,4.3281,4.3237,4.3249,4.3261,4.3288,4.3288,4.3305,4.3322,4.3324,4.3303,4.3341,4.335,4.341,4.3448,4.3378,4.3382,4.3569,4.3573,4.3576,4.3625,0,0,0,0,0,0,4.3172,4.3186,4.3212,4.3238,4.3251,4.3332,4.329,4.3291,4.3313,4.3309,4.3337,4.3339,4.334,4.3403,4.3414,4.3452,4.3386,4.3565,4.357,4.3575,4.362,4.363,4.3638,0,0,0,0,0,4.3167,4.3222,4.3214,4.3225,4.3284,4.3335,4.3342,4.3341,4.3316,4.3344,4.3356,4.3339,4.3441,4.3409,4.3421,4.3462,4.3563,4.3569,4.3575,4.3615,4.3628,4.3638,0,0,0,0,0,0,4.32,4.3225,4.3216,4.3281,4.3306,4.333,4.3364,4.3353,4.3386,4.3381,4.3379,4.3385,4.3448,4.346,4.3424,4.3536,4.3499,4.3507,4.3525,4.3537,4.3546,4.3543,4.3389,0,0,0,0,0,4.3215,4.3253,4.3273,4.3329,4.3342,4.3351,4.3373,4.3371,4.3396,4.3407,4.3422,4.3449,4.3487,4.3513,4.3548,4.3621,4.3629,4.3655,4.3664,4.3672,4.368,4.3724,4.3737,4.3597,4.3597,4.3597,0,0,4.3246,4.3265,4.3288,4.3336,4.3355,4.3397,4.336,4.3404,4.3436,4.3413,4.3472,4.3485,4.3514,4.3582,4.3612,4.3594,4.3721,4.368,4.3685,4.3689,4.3732,4.3745,4.3757,4.3601,4.36,4.36,0,0,4.3324,4.3341,4.3391,4.3412,4.3442,4.3448,4.346,4.3487,4.3495,4.3554,4.3539,4.3577,4.3642,4.3665,4.3685,4.3778,4.3765,4.3789,4.3838,4.3881,4.3892,4.3902,4.3939,4.3952,4.3797,4.3797,4.3797,0,4.3359,4.342,4.3418,4.3465,4.3488,4.3471,4.3524,4.3544,4.3584,4.3601,4.358,4.3666,4.3683,4.3759,4.3782,4.3797,4.3814,4.3786,4.3891,4.3901,4.391,4.3945,4.3958,4.38,4.38,4.3799,4.3799,0,4.3463,4.3506,4.3543,4.3585,4.3612,4.3661,4.3669,4.3697,4.3693,4.3702,4.3765,4.3787,4.3829,4.3846,4.3842,4.3923,4.3911,4.389,4.3853,4.3926,4.3959,4.3972,4.3804,4.3803,4.3802,4.3802,0,0,4.3562,4.3605,4.3619,4.3639,4.3673,4.3707,4.3757,4.38,4.3825,4.3854,4.3899,4.3957,4.394,4.3963,4.3961,4.3999,4.4076,4.3974,4.3975,4.3995,4.4171,4.4188,4.4203,4.4067,4.4069,4.4071,4.4169,0,4.3645,4.3733,4.3735,4.3817,4.3859,4.3845,4.389,4.3917,4.3928,4.3966,4.3978,4.4021,4.3993,4.4008,4.4044,4.4058,4.4111,4.4051,4.4111,4.4113,4.4106,4.422,4.4237,4.4328,4.4182,4.4184,4.4185,0,4.3754,4.3789,4.3875,4.3907,4.3925,4.3965,4.4006,4.4042,4.4074,4.4079,4.4108,4.4102,4.4156,4.4117,4.4193,4.4152,4.4177,4.4188,4.4192,4.4199,4.4155,4.4233,4.4357,4.4372,4.4205,4.4203,4.4202,0,4.3822,4.389,4.3952,4.3969,4.4007,4.4037,4.4054,4.4083,4.411,4.4147,4.4165,4.4207,4.423,4.4264,4.4271,4.4241,4.4349,4.4309,4.4358,4.4358,4.4382,4.4381,4.4515,4.4394,4.4394,4.4393,4.4393,0,4.3916,4.397,4.3984,4.4022,4.4084,4.4086,4.4148,4.4163,4.419,4.4232,4.4222,4.4263,4.4268,4.4311,4.4316,4.4382,4.4391,4.4399,4.4401,4.4402,4.4401,4.4419,4.4414,4.4397,4.4396,4.4396,4.4395,0,4.4003,4.4013,4.4081,4.4112,4.4122,4.4166,4.4194,4.4232,4.4243,4.4298,4.4311,4.4328,4.4378,4.4389,4.4447,4.4451,4.453,4.4523,4.452,4.452,4.457,4.4566,4.4722,4.4744,4.4606,4.4607,4.4608,0,4.4063,4.4105,4.4143,4.4171,4.419,4.4235,4.4264,4.4269,4.4299,4.4341,4.4375,4.4424,4.4463,4.4545,4.4564,4.461,4.4606,4.4658,4.4613,4.4615,4.4611,4.461,4.4616,4.4667,4.4668,4.4669,4.467,0,4.4171,4.4176,4.4217,4.4262,4.4296,4.4331,4.4364,4.4388,4.4398,4.4433,4.4485,4.4516,4.4578,4.4629,4.4675,4.4695,4.4686,4.4684,4.4699,4.4702,4.47,4.4705,4.4546,4.4681,4.468,4.4679,4.4679,4.4678,4.4249,4.4288,4.4321,4.4369,4.4395,4.4428,4.4466,4.4483,4.4527,4.4578,4.4578,4.4636,4.4671,4.4733,4.4756,4.4802,4.4786,4.4806,4.4812,4.4817,4.4824,4.469,4.481,4.481,4.481,4.481,4.4809,0,4.436,4.4381,4.4425,4.4474,4.4512,4.45,4.4538,4.4571,4.4622,4.4655,4.4696,4.4758,4.4808,4.4832,4.4882,4.4915,4.4913,4.4928,4.4927,4.4933,4.4833,4.4818,4.493,4.493,4.493,4.493,4.493,4.493,4.4422,4.4488,4.4497,4.4577,4.4599,4.4656,4.4679,4.471,4.4737,4.4807,4.4849,4.4864,4.4895,4.4948,4.4994,4.5,4.5021,4.5039,4.5044,4.4951,4.4939,4.4927,4.4913,4.5043,4.5043,4.514,4.5141,4.5141]},{"header":{"parameterUnit":"m.s-1","parameterCategory":1,"la1":30.2991,"la2":30.254,"lo1":-89.0895,"lo2":-89.0444,"dy":0.0017,"dx":0.0017,"nx":28,"ny":28,"refTime":"2024-02-23T03:00:00:Z","depth":0,"parameterNumber":3,"parameterNumberName":"V-component_of_WINDS"},"data":[0,0,0,0,0,0,0,0,0,0,0,0,0,0,0,0,0,0,0,0,0,0,0,0,0,0,0,0,0,0,0,0,0,0,0,0,0,0,0,0,0,0,0,0,0,0,0,0,0,0,0,0,0,0,0,0,0,0,-3.5558,-3.5556,0,-3.5365,-3.5362,-3.536,-3.5377,-3.538,-3.5383,-3.5385,-3.5168,-3.516,-3.5151,0,0,0,0,0,0,0,0,0,0,0,0,0,-3.5924,-3.5917,-3.5558,-3.5555,-3.5553,-3.5365,-3.5362,-3.536,-3.5376,-3.538,-3.5383,-3.5387,-3.5171,-3.5161,-3.5151,0,0,0,0,0,0,0,0,0,0,0,0,0,-3.5751,-3.5915,-3.5558,-3.5539,-3.5535,-3.5365,-3.5362,-3.5359,-3.5375,-3.538,-3.5384,-3.5388,-3.5174,-3.5162,-3.5149,-3.498,0,0,-3.511,-3.5104,0,0,0,0,0,0,0,0,-3.576,-3.5737,-3.5544,-3.554,-3.5536,-3.54,-3.5412,-3.5231,-3.5374,-3.5435,-3.5385,-3.5391,-3.524,-3.5222,-3.5175,-3.497,-3.496,-3.5109,-3.5101,-3.5095,-3.5092,0,0,0,0,0,0,0,-3.5772,-3.5745,-3.5481,-3.5541,-3.5536,-3.5534,-3.5515,-3.5377,-3.5314,-3.543,-3.5431,-3.5409,-3.5239,-3.5188,-3.517,-3.4957,-3.5109,-3.5098,-3.509,-3.5085,-3.4601,-3.4596,0,0,0,0,0,0,-3.5791,-3.5755,-3.5487,-3.5475,-3.5662,-3.5524,-3.5502,-3.5438,-3.5316,-3.5302,-3.5406,-3.5411,-3.5208,-3.5185,-3.5163,-3.4956,-3.5095,-3.5083,-3.5076,-3.4606,-3.46,-3.4594,0,0,0,0,0,0,-3.5799,-3.5767,-3.5495,-3.5615,-3.5581,-3.5513,-3.5441,-3.5432,-3.5382,-3.5298,-3.5284,-3.5367,-3.521,-3.5181,-3.5026,-3.4948,-3.5078,-3.5066,-3.4612,-3.4604,-3.4597,-3.454,0,0,0,0,0,0,-3.581,-3.577,-3.5709,-3.5614,-3.5574,-3.5366,-3.5437,-3.5425,-3.5362,-3.5367,-3.5257,-3.5243,-3.5212,-3.5046,-3.5014,-3.4933,-3.5056,-3.4619,-3.4609,-3.4599,-3.4549,-3.4532,-3.4517,0,0,0,0,0,-3.5823,-3.5696,-3.5706,-3.5673,-3.5497,-3.5362,-3.5338,-3.531,-3.5356,-3.5291,-3.5237,-3.5247,-3.4963,-3.503,-3.4994,-3.4908,-3.4623,-3.4611,-3.46,-3.4556,-3.4535,-3.4518,0,0,0,0,0,0,-3.5776,-3.5684,-3.5693,-3.5533,-3.5457,-3.5365,-3.5282,-3.5289,-3.5192,-3.52,-3.5163,-3.5138,-3.4982,-3.4929,-3.5005,-3.4737,-3.4798,-3.4779,-3.4777,-3.4756,-3.4741,-3.4755,-3.5045,0,0,0,0,0,-3.5749,-3.5653,-3.5574,-3.5441,-3.5403,-3.535,-3.5289,-3.5275,-3.5191,-3.5156,-3.5091,-3.5003,-3.4895,-3.4823,-3.4718,-3.4543,-3.4517,-3.4466,-3.445,-3.4438,-3.442,-3.4321,-3.4297,-3.4556,-3.4556,-3.4557,0,0,-3.5688,-3.5626,-3.5566,-3.543,-3.5369,-3.5264,-3.5321,-3.5208,-3.5129,-3.5136,-3.4988,-3.4937,-3.4837,-3.4671,-3.4595,-3.4623,-3.4343,-3.4423,-3.4413,-3.4402,-3.4307,-3.4282,-3.4261,-3.4549,-3.455,-3.4551,0,0,-3.5525,-3.547,-3.5353,-3.5292,-3.5201,-3.5167,-3.5139,-3.5047,-3.5016,-3.4868,-3.4872,-3.4774,-3.4588,-3.4516,-3.4455,-3.4268,-3.4272,-3.4235,-3.415,-3.4054,-3.4034,-3.4015,-3.3946,-3.3922,-3.4218,-3.4218,-3.4218,0,-3.5459,-3.5308,-3.5289,-3.5177,-3.5115,-3.5126,-3.5004,-3.4943,-3.482,-3.4774,-3.481,-3.4578,-3.4511,-3.4328,-3.4283,-3.4234,-3.4197,-3.4245,-3.404,-3.4021,-3.4003,-3.3936,-3.3911,-3.4214,-3.4214,-3.4215,-3.4215,0,-3.523,-3.5126,-3.5041,-3.493,-3.4859,-3.4741,-3.47,-3.463,-3.4622,-3.4583,-3.443,-3.4352,-3.4231,-3.4188,-3.4176,-3.4002,-3.4022,-3.4049,-3.4109,-3.3975,-3.3911,-3.3886,-3.4208,-3.4209,-3.4211,-3.4212,0,0,-3.5027,-3.4912,-3.488,-3.483,-3.4732,-3.4647,-3.4529,-3.4419,-3.4358,-3.4272,-3.4169,-3.4014,-3.4039,-3.3969,-3.395,-3.3867,-3.3721,-3.3903,-3.39,-3.387,-3.3521,-3.35,-3.3471,-3.3726,-3.3721,-3.3717,-3.3529,0,-3.4852,-3.4651,-3.4632,-3.4449,-3.435,-3.436,-3.4256,-3.4182,-3.4143,-3.4048,-3.4002,-3.3892,-3.3935,-3.3893,-3.3812,-3.3757,-3.365,-3.377,-3.3623,-3.3618,-3.3646,-3.3438,-3.3415,-3.3242,-3.3504,-3.35,-3.3497,0,-3.462,-3.4536,-3.4345,-3.4262,-3.422,-3.4128,-3.4025,-3.3937,-3.3851,-3.3828,-3.3754,-3.3746,-3.3619,-3.3688,-3.351,-3.3592,-3.3531,-3.3495,-3.3488,-3.3469,-3.3547,-3.3411,-3.3186,-3.3159,-3.3458,-3.3461,-3.3464,0,-3.4488,-3.4327,-3.4192,-3.4148,-3.4049,-3.3984,-3.3938,-3.3858,-3.3793,-3.3701,-3.3658,-3.355,-3.3489,-3.3403,-3.3365,-3.3419,-3.3188,-3.3254,-3.316,-3.3161,-3.3108,-3.3111,-3.2866,-3.3074,-3.3075,-3.3075,-3.3076,0,-3.4292,-3.4174,-3.4132,-3.4048,-3.3915,-3.3893,-3.376,-3.3716,-3.3645,-3.3549,-3.3549,-3.3458,-3.3415,-3.3315,-3.3284,-3.314,-3.3112,-3.3086,-3.3078,-3.3084,-3.3087,-3.3041,-3.3051,-3.3068,-3.307,-3.3071,-3.3072,0,-3.4121,-3.4089,-3.3942,-3.3863,-3.384,-3.3745,-3.3673,-3.359,-3.3554,-3.3432,-3.3402,-3.3342,-3.3226,-3.3181,-3.3035,-3.3015,-3.2847,-3.2851,-3.2878,-3.2875,-3.2783,-3.2792,-3.2497,-3.2456,-3.2694,-3.2692,-3.269,0,-3.3997,-3.3907,-3.382,-3.376,-3.3714,-3.3615,-3.3551,-3.3525,-3.3457,-3.3355,-3.3282,-3.3168,-3.3074,-3.2886,-3.2825,-3.2714,-3.2713,-3.2618,-3.2695,-3.2704,-3.2707,-3.2712,-3.2702,-3.2601,-3.2599,-3.2597,-3.2595,0,-3.3778,-3.3768,-3.3679,-3.3584,-3.3509,-3.3431,-3.3355,-3.3303,-3.3265,-3.3187,-3.3072,-3.3001,-3.2857,-3.2741,-3.2628,-3.2573,-3.2575,-3.2573,-3.2544,-3.2547,-3.2566,-3.2552,-3.2835,-3.2578,-3.258,-3.2581,-3.2582,-3.2583,-3.3624,-3.3545,-3.3473,-3.3373,-3.3315,-3.3245,-3.3164,-3.312,-3.3026,-3.2911,-3.2901,-3.2775,-3.269,-3.254,-3.2482,-3.2379,-3.2404,-3.2364,-3.2353,-3.2342,-3.2335,-3.2587,-3.2359,-3.2359,-3.2359,-3.236,-3.236,0,-3.3403,-3.3359,-3.3269,-3.3166,-3.3087,-3.3106,-3.3022,-3.2953,-3.2845,-3.277,-3.2681,-3.2546,-3.2435,-3.2369,-3.2256,-3.2186,-3.2184,-3.2157,-3.216,-3.2147,-3.2321,-3.2355,-3.2161,-3.2161,-3.2161,-3.2161,-3.2161,-3.2161,-3.3279,-3.3147,-3.3128,-3.2966,-3.292,-3.2803,-3.2754,-3.2688,-3.2628,-3.2481,-3.2392,-3.2352,-3.2278,-3.2161,-3.2058,-3.2041,-3.1997,-3.1967,-3.1951,-3.2114,-3.2134,-3.2154,-3.2186,-3.1959,-3.1959,-3.1785,-3.1784,-3.1783]}]]